TimeEDT,TemperatureF,Dew PointF,Humidity,Sea Level PressureIn,VisibilityMPH,Wind Direction,Wind SpeedMPH,Gust SpeedMPH,PrecipitationIn,Events,Conditions,WindDirDegrees,DateUTC
12:54 AM,46.0,42.1,86,29.56,10.0,Calm,Calm,-,0.00,Rain,Light Rain,0,2012-10-19 04:54:00
1:54 AM,46.0,43.0,89,29.55,10.0,Calm,Calm,-,0.03,Rain,Light Rain,0,2012-10-19 05:54:00
2:54 AM,46.0,43.0,89,29.53,9.0,Calm,Calm,-,0.01,Rain,Light Rain,0,2012-10-19 06:54:00
3:54 AM,45.0,43.0,93,29.52,9.0,SW,3.5,-,0.03,Rain,Light Rain,230,2012-10-19 07:54:00
4:54 AM,44.1,42.1,93,29.52,8.0,South,4.6,-,0.05,Rain,Light Rain,180,2012-10-19 08:54:00
5:54 AM,44.1,42.1,93,29.50,10.0,SSW,10.4,-,0.02,Rain,Light Rain,200,2012-10-19 09:54:00
6:43 AM,44.6,42.8,93,29.50,10.0,South,8.1,-,0.02,Rain,Light Rain,190,2012-10-19 10:43:00
6:54 AM,44.1,42.1,93,29.50,9.0,South,6.9,-,0.03,Rain,Light Rain,190,2012-10-19 10:54:00
7:49 AM,44.6,42.8,93,29.49,10.0,SSW,10.4,18.4,0.01,Rain,Light Rain,210,2012-10-19 11:49:00
7:54 AM,45.0,43.0,93,29.50,9.0,SSW,12.7,20.7,0.01,Rain,Light Rain,200,2012-10-19 11:54:00
8:15 AM,44.6,42.8,93,29.50,7.0,SSW,11.5,18.4,0.01,Rain,Light Rain,210,2012-10-19 12:15:00
8:54 AM,45.0,44.1,97,29.51,7.0,SW,8.1,-,0.01,,Overcast,220,2012-10-19 12:54:00
9:51 AM,46.4,46.4,100,29.51,10.0,WSW,11.5,-,0.00,Rain,Light Rain,240,2012-10-19 13:51:00
9:54 AM,46.0,46.0,100,29.52,10.0,SW,9.2,-,0.00,Rain,Light Rain,230,2012-10-19 13:54:00
10:54 AM,46.9,46.0,97,29.52,10.0,WSW,12.7,18.4,0.00,Rain,Light Rain,240,2012-10-19 14:54:00
11:54 AM,46.9,46.0,97,29.53,10.0,WSW,6.9,-,0.01,Rain,Light Rain,240,2012-10-19 15:54:00
12:01 PM,46.4,44.6,93,29.53,10.0,Variable,6.9,-,0.00,Rain,Light Rain,0,2012-10-19 16:01:00
12:24 PM,46.4,46.4,100,29.53,10.0,SW,6.9,-,0.01,Rain,Light Rain,230,2012-10-19 16:24:00
12:32 PM,46.4,46.4,100,29.53,10.0,SW,8.1,-,0.01,Rain,Light Rain,230,2012-10-19 16:32:00
12:40 PM,46.4,46.4,100,29.53,10.0,SW,8.1,-,0.01,Rain,Light Rain,230,2012-10-19 16:40:00
12:54 PM,46.0,46.0,100,29.54,9.0,WSW,8.1,-,0.01,Rain,Light Rain,240,2012-10-19 16:54:00
1:01 PM,46.4,46.4,100,29.53,8.0,WSW,9.2,-,0.01,Rain,Light Rain,240,2012-10-19 17:01:00
1:54 PM,48.0,46.9,96,29.53,10.0,WSW,6.9,-,0.01,,Overcast,250,2012-10-19 17:54:00
2:05 PM,46.4,46.4,100,29.53,5.0,West,10.4,-,0.02,Rain,Light Rain,260,2012-10-19 18:05:00
2:54 PM,48.0,48.0,100,29.54,10.0,WSW,10.4,-,0.03,,Overcast,250,2012-10-19 18:54:00
3:18 PM,48.2,46.4,93,29.54,10.0,WSW,11.5,18.4,N/A,,Overcast,250,2012-10-19 19:18:00
3:32 PM,48.2,46.4,93,29.54,10.0,West,11.5,19.6,N/A,,Overcast,260,2012-10-19 19:32:00
3:54 PM,48.9,48.0,97,29.56,10.0,WSW,9.2,-,N/A,,Overcast,250,2012-10-19 19:54:00
4:01 PM,48.2,48.2,100,29.55,10.0,WSW,10.4,-,N/A,,Overcast,250,2012-10-19 20:01:00
4:54 PM,48.0,44.1,86,29.58,10.0,West,16.1,23.0,N/A,,Overcast,260,2012-10-19 20:54:00
5:54 PM,48.0,44.1,86,29.60,10.0,West,10.4,-,0.00,,Overcast,260,2012-10-19 21:54:00
6:54 PM,46.9,44.1,90,29.62,4.0,West,9.2,-,0.02,Rain,Rain,280,2012-10-19 22:54:00
7:54 PM,45.0,42.1,90,29.64,10.0,West,5.8,-,0.02,,Overcast,260,2012-10-19 23:54:00
8:54 PM,45.0,42.1,90,29.65,10.0,WSW,5.8,-,0.01,,Mostly Cloudy,250,2012-10-20 00:54:00
9:54 PM,46.0,44.1,93,29.67,10.0,West,4.6,-,N/A,,Overcast,260,2012-10-20 01:54:00
10:54 PM,46.0,43.0,89,29.68,10.0,WSW,4.6,-,N/A,,Overcast,250,2012-10-20 02:54:00
11:54 PM,46.0,43.0,89,29.68,10.0,West,6.9,-,N/A,,Overcast,260,2012-10-20 03:54:00